Regional Weather Roundup
Issued by NWS Cleveland, OH

Home | Current Version | Previous Version | Graphics & Text | Print | Product List | Glossary On
Versions: 1 2 3 4 5 6 7 8 9 10 11 12 13 14 15 16 17 18 19 20 21 22 23 24 25 26 27 28 29 30 31 32 33 34 35 36 37 38 39 40 41 42 43 44 45 46 47 48 49 50
000
ASUS41 KCLE 291410
RWRCLE
OHIO REGIONAL WEATHER ROUNDUP
NATIONAL WEATHER SERVICE WILMINGTON, OH
900 AM EST MON DEC 29 2014

NOTE: "FAIR" INDICATES FEW OR NO CLOUDS BELOW 12,000 FEET WITH NO
SIGNIFICANT WEATHER AND/OR OBSTRUCTIONS TO VISIBILITY.

OHZ001>008-015>018-024>027-034-035-043-044-291500-
   NORTHWEST OHIO

CITY           SKY/WX    TMP DP  RH WIND       PRES   REMARKS
DEFIANCE       PTCLDY    23  20  88 CALM      30.32R FOG
FINDLAY        CLEAR     27  20  75 NE6       30.27S WCI  20
TOLEDO EXPRESS PTCLDY    20  17  88 CALM      30.30R
TOLEDO METCALF CLEAR     23  18  81 MISG      30.31R
LIMA           CLEAR     26  21  81 CALM      30.27R
$$

OHZ009>014-019>023-028>033-038-089-291500-
   NORTHEAST OHIO

CITY           SKY/WX    TMP DP  RH WIND       PRES   REMARKS
CLE-HOPKINS    CLOUDY    30  22  72 N10       30.28R WCI  21
CLE-LAKEFRONT  CLOUDY    32  21  64 NW10      30.26R WCI  24
CUY CO. ARPT   CLOUDY    32  21  64 N9        30.25R WCI  24
LORAIN-ELYRIA  CLOUDY    30  23  75 N7        30.27R WCI  23
ASHTABULA      CLOUDY    30  23  75 VRB5      30.24R WCI  25
AKRON-CANTON   PTCLDY    28  24  85 NW5       30.22R WCI  23
WOOSTER        CLEAR     27  24  89 N7        30.24R FOG     WCI  19
MANSFIELD      CLEAR     24  22  91 NW5       30.23R FOG     WCI  18
YOUNGSTOWN     CLOUDY    29  26  89 CALM      30.21R
$$

OHZ042-051>053-060>062-070>072-077>081-291500-
  SOUTHWEST OHIO

CITY           SKY/WX    TMP DP  RH WIND       PRES   REMARKS
CINC-COVINGTON MOCLDY    30  21  69 NE9       30.25R WCI  22
CINC-LUNKEN    CLOUDY    30  25  81 NE7       30.29R WCI  23
HAMILTON       CLEAR     27  24  89 N8        30.28R FOG     WCI  19
DAYTON         PTCLDY    26  23  88 N7        30.27R FOG     WCI  18
WRIGHT-PAT AFB CLEAR     25  23  91 N6        30.27R WCI  18
DAYTON GENERAL CLEAR     26  23  88 N7        30.25R FOG     WCI  18
WILMINGTON     CLEAR     27  22  81 N6        30.24R HAZE    WCI  20
$$

OHZ036-037-039>041-045>050-054>059-063>069-073>076-082>088-291500-
  CENTRAL AND SOUTHEAST OHIO

CITY           SKY/WX    TMP DP  RH WIND       PRES   REMARKS
COLUMBUS       PTCLDY    26  23  88 N5        30.26R WCI  20
OSU AIRPORT    CLEAR     25  22  88 N7        30.26R FOG     WCI  17
BOLTON FIELD   CLEAR    N/A N/A N/A NW3       30.26R
RICKENBACK AFB CLEAR     26  24  90 N6        30.26R FOG     WCI  19
NEWARK         CLEAR     28  25  88 CALM      30.24R FOG
MARION         CLEAR     25  21  85 N7        30.26R FOG     WCI  17
LANCASTER      CLEAR     28  25  88 NW5       30.25R FOG     WCI  23
ZANESVILLE     PTSUNNY   28  24  85 CALM      30.23R
NEW PHILLY     SUNNY     28  25  88 CALM      30.24R FOG
$$


USA.gov is the U.S. government's official web portal to all federal, state and local government web resources and services.